******** Week 352 almanac for PRN-1 ******** ID: 1 Health: 0 Eccentricity: 0.001330375671 Time of Applicability(s): 319488 Orbital Inclination(rad): 0.9583868546 Rate of Right Ascen(r/s): -7.863184676e-09 SQRT(A) (m 1/2): 5153.588379 Right Ascen at Week(rad): -2.144500648 Argument of Perigee(rad): -0.03482877914 Mean Anom(rad): -1.293622927 Af0(s): 0.0002735837769 Af1(s/s): -3.637979e-12 week: 352 ******** Week 352 almanac for PRN-2 ******** ID: 2 Health: 0 Eccentricity: 0.01697015762 Time of Applicability(s): 319488 Orbital Inclination(rad): 0.9639355508 Rate of Right Ascen(r/s): -7.737465153e-09 SQRT(A) (m 1/2): 5153.570801 Right Ascen at Week(rad): -2.307306344 Argument of Perigee(rad): -0.8560979751 Mean Anom(rad): 0.08328661806 Af0(s): 9.044091797e-06 Af1(s/s): 7.275958e-12 week: 352 ******** Week 352 almanac for PRN-3 ******** ID: 3 Health: 0 Eccentricity: 0.006326198578 Time of Applicability(s): 319488 Orbital Inclination(rad): 0.9924819745 Rate of Right Ascen(r/s): -7.863184676e-09 SQRT(A) (m 1/2): 5153.608398 Right Ascen at Week(rad): -1.158738977 Argument of Perigee(rad): 1.212240302 Mean Anom(rad): 2.733909921 Af0(s): 0.0004778295166 Af1(s/s): -1.091394e-11 week: 352 ******** Week 352 almanac for PRN-4 ******** ID: 4 Health: 0 Eccentricity: 0.003708362579 Time of Applicability(s): 319488 Orbital Inclination(rad): 0.970448977 Rate of Right Ascen(r/s): -7.943188008e-09 SQRT(A) (m 1/2): 5153.703613 Right Ascen at Week(rad): -0.08745001269 Argument of Perigee(rad): -2.920113318 Mean Anom(rad): -0.476548584 Af0(s): 2.863962402e-05 Af1(s/s): 3.637979e-12 week: 352 ******** Week 352 almanac for PRN-5 ******** ID: 5 Health: 0 Eccentricity: 0.00537109375 Time of Applicability(s): 319488 Orbital Inclination(rad): 0.9790596426 Rate of Right Ascen(r/s): -7.988904198e-09 SQRT(A) (m 1/2): 5153.625488 Right Ascen at Week(rad): -1.217802481 Argument of Perigee(rad): 1.427305832 Mean Anom(rad): 0.1148148668 Af0(s): -0.0001793744873 Af1(s/s): 0 week: 352 ******** Week 352 almanac for PRN-6 ******** ID: 6 Health: 0 Eccentricity: 0.003846645355 Time of Applicability(s): 319488 Orbital Inclination(rad): 0.9873527262 Rate of Right Ascen(r/s): -7.566029441e-09 SQRT(A) (m 1/2): 5153.5625 Right Ascen at Week(rad): -2.195505884 Argument of Perigee(rad): -0.6353496757 Mean Anom(rad): -2.158277638 Af0(s): -0.000474061145 Af1(s/s): -3.637979e-12 week: 352 ******** Week 352 almanac for PRN-7 ******** ID: 7 Health: 0 Eccentricity: 0.02013731003 Time of Applicability(s): 319488 Orbital Inclination(rad): 0.9507409191 Rate of Right Ascen(r/s): -7.794610391e-09 SQRT(A) (m 1/2): 5153.595703 Right Ascen at Week(rad): 0.9212543334 Argument of Perigee(rad): -2.006796286 Mean Anom(rad): -3.076162532 Af0(s): -0.0001040070557 Af1(s/s): -3.637979e-12 week: 352 ******** Week 352 almanac for PRN-8 ******** ID: 8 Health: 0 Eccentricity: 0.01136684418 Time of Applicability(s): 319488 Orbital Inclination(rad): 0.9445870197 Rate of Right Ascen(r/s): -8.171768958e-09 SQRT(A) (m 1/2): 5153.60498 Right Ascen at Week(rad): 2.969962076 Argument of Perigee(rad): 0.4972850381 Mean Anom(rad): -0.2207385621 Af0(s): 0.000400201062 Af1(s/s): -3.637979e-12 week: 352 ******** Week 352 almanac for PRN-9 ******** ID: 9 Health: 0 Eccentricity: 0.003396511078 Time of Applicability(s): 319488 Orbital Inclination(rad): 0.9645587305 Rate of Right Ascen(r/s): -8.034620388e-09 SQRT(A) (m 1/2): 5153.532227 Right Ascen at Week(rad): -0.1512828632 Argument of Perigee(rad): 2.064452767 Mean Anom(rad): 0.3516018041 Af0(s): 0.0006082151733 Af1(s/s): 0 week: 352 ******** Week 352 almanac for PRN-10 ******** ID: 10 Health: 0 Eccentricity: 0.01097011566 Time of Applicability(s): 319488 Orbital Inclination(rad): 0.9920325661 Rate of Right Ascen(r/s): -7.840326581e-09 SQRT(A) (m 1/2): 5153.603027 Right Ascen at Week(rad): -1.161250047 Argument of Perigee(rad): -2.269648164 Mean Anom(rad): 1.770762108 Af0(s): -0.0004589876587 Af1(s/s): -3.637979e-12 week: 352 ******** Week 352 almanac for PRN-11 ******** ID: 11 Health: 0 Eccentricity: 0.002248764038 Time of Applicability(s): 319488 Orbital Inclination(rad): 0.9641992037 Rate of Right Ascen(r/s): -7.794610391e-09 SQRT(A) (m 1/2): 5153.728516 Right Ascen at Week(rad): -2.175518444 Argument of Perigee(rad): -2.249875316 Mean Anom(rad): -1.194839208 Af0(s): -0.0003813592041 Af1(s/s): 1.455192e-11 week: 352 ******** Week 352 almanac for PRN-12 ******** ID: 12 Health: 0 Eccentricity: 0.009059429169 Time of Applicability(s): 319488 Orbital Inclination(rad): 0.958938129 Rate of Right Ascen(r/s): -8.023191341e-09 SQRT(A) (m 1/2): 5153.51123 Right Ascen at Week(rad): 2.039176539 Argument of Perigee(rad): 1.532096644 Mean Anom(rad): 2.584473003 Af0(s): -0.0004793368652 Af1(s/s): 0 week: 352 ******** Week 352 almanac for PRN-13 ******** ID: 13 Health: 0 Eccentricity: 0.009902477264 Time of Applicability(s): 319488 Orbital Inclination(rad): 0.9761534681 Rate of Right Ascen(r/s): -7.840326581e-09 SQRT(A) (m 1/2): 5153.625977 Right Ascen at Week(rad): 0.02300334521 Argument of Perigee(rad): 1.002850801 Mean Anom(rad): -0.4988040387 Af0(s): 0.0005456602051 Af1(s/s): 0 week: 352 ******** Week 352 almanac for PRN-14 ******** ID: 14 Health: 0 Eccentricity: 0.006472110748 Time of Applicability(s): 319488 Orbital Inclination(rad): 0.9422441037 Rate of Right Ascen(r/s): -8.171768958e-09 SQRT(A) (m 1/2): 5153.583496 Right Ascen at Week(rad): 1.985393584 Argument of Perigee(rad): -2.763896325 Mean Anom(rad): 2.39191647 Af0(s): 0.0005750535034 Af1(s/s): 3.637979e-12 week: 352 ******** Week 352 almanac for PRN-15 ******** ID: 15 Health: 0 Eccentricity: 0.01661157608 Time of Applicability(s): 319488 Orbital Inclination(rad): 0.9423220012 Rate of Right Ascen(r/s): -8.297488481e-09 SQRT(A) (m 1/2): 5153.615723 Right Ascen at Week(rad): -0.2939479451 Argument of Perigee(rad): 1.492025515 Mean Anom(rad): -1.231460378 Af0(s): 0.0002961940063 Af1(s/s): 3.637979e-12 week: 352 ******** Week 352 almanac for PRN-16 ******** ID: 16 Health: 0 Eccentricity: 0.0150270462 Time of Applicability(s): 319488 Orbital Inclination(rad): 0.9581112175 Rate of Right Ascen(r/s): -8.034620388e-09 SQRT(A) (m 1/2): 5153.5625 Right Ascen at Week(rad): 2.05624582 Argument of Perigee(rad): 0.9194293606 Mean Anom(rad): 0.7727656671 Af0(s): 0.0001447054687 Af1(s/s): 7.275958e-12 week: 352 ******** Week 352 almanac for PRN-17 ******** ID: 17 Health: 0 Eccentricity: 0.01284980774 Time of Applicability(s): 319488 Orbital Inclination(rad): 0.9603522675 Rate of Right Ascen(r/s): -7.943188008e-09 SQRT(A) (m 1/2): 5153.506836 Right Ascen at Week(rad): 3.073767934 Argument of Perigee(rad): -1.139135781 Mean Anom(rad): -0.3386322512 Af0(s): -2.034920654e-05 Af1(s/s): -1.091394e-11 week: 352 ******** Week 352 almanac for PRN-18 ******** ID: 18 Health: 0 Eccentricity: 0.005689620972 Time of Applicability(s): 319488 Orbital Inclination(rad): 0.9723185161 Rate of Right Ascen(r/s): -7.714607058e-09 SQRT(A) (m 1/2): 5153.605957 Right Ascen at Week(rad): -2.199777886 Argument of Perigee(rad): -2.855816828 Mean Anom(rad): -2.319555345 Af0(s): -0.0003610099976 Af1(s/s): 1.091394e-11 week: 352 ******** Week 352 almanac for PRN-19 ******** ID: 19 Health: 0 Eccentricity: 0.01095581055 Time of Applicability(s): 319488 Orbital Inclination(rad): 0.9595553166 Rate of Right Ascen(r/s): -7.931758961e-09 SQRT(A) (m 1/2): 5153.651367 Right Ascen at Week(rad): 3.117673265 Argument of Perigee(rad): 2.912565129 Mean Anom(rad): 1.533232898 Af0(s): 0.0005411381592 Af1(s/s): 3.637979e-12 week: 352 ******** Week 352 almanac for PRN-20 ******** ID: 20 Health: 0 Eccentricity: 0.00368976593 Time of Applicability(s): 319488 Orbital Inclination(rad): 0.9607177864 Rate of Right Ascen(r/s): -8.103194673e-09 SQRT(A) (m 1/2): 5153.608887 Right Ascen at Week(rad): -1.35700562 Argument of Perigee(rad): -2.040186959 Mean Anom(rad): -2.130389972 Af0(s): 0.0002856425659 Af1(s/s): 0 week: 352 ******** Week 352 almanac for PRN-21 ******** ID: 21 Health: 0 Eccentricity: 0.0005240440369 Time of Applicability(s): 319488 Orbital Inclination(rad): 0.9619102168 Rate of Right Ascen(r/s): -8.171768958e-09 SQRT(A) (m 1/2): 5153.682129 Right Ascen at Week(rad): -1.150864967 Argument of Perigee(rad): -0.5096063194 Mean Anom(rad): 2.47010792 Af0(s): 0.0002961940063 Af1(s/s): 7.275958e-12 week: 352 ******** Week 352 almanac for PRN-22 ******** ID: 22 Health: 0 Eccentricity: 0.01226663589 Time of Applicability(s): 319488 Orbital Inclination(rad): 0.9575419668 Rate of Right Ascen(r/s): -8.023191341e-09 SQRT(A) (m 1/2): 5153.571777 Right Ascen at Week(rad): 2.059583052 Argument of Perigee(rad): -0.9989345812 Mean Anom(rad): 0.3161532158 Af0(s): -4.823515625e-05 Af1(s/s): 3.637979e-12 week: 352 ******** Week 352 almanac for PRN-23 ******** ID: 23 Health: 0 Eccentricity: 0.005990982056 Time of Applicability(s): 319488 Orbital Inclination(rad): 0.9870291522 Rate of Right Ascen(r/s): -7.886042771e-09 SQRT(A) (m 1/2): 5153.649414 Right Ascen at Week(rad): -1.193092882 Argument of Perigee(rad): -2.750677725 Mean Anom(rad): 2.872747916 Af0(s): 0.0004710464477 Af1(s/s): 3.637979e-12 week: 352 ******** Week 352 almanac for PRN-24 ******** ID: 24 Health: 0 Eccentricity: 0.01782035828 Time of Applicability(s): 319488 Orbital Inclination(rad): 0.9348019 Rate of Right Ascen(r/s): -7.966046103e-09 SQRT(A) (m 1/2): 5153.603516 Right Ascen at Week(rad): 0.8137198832 Argument of Perigee(rad): 1.127820052 Mean Anom(rad): -2.095253349 Af0(s): -0.000135661377 Af1(s/s): 1.455192e-11 week: 352 ******** Week 352 almanac for PRN-25 ******** ID: 25 Health: 0 Eccentricity: 0.01291751862 Time of Applicability(s): 319488 Orbital Inclination(rad): 0.9472055728 Rate of Right Ascen(r/s): -8.126052768e-09 SQRT(A) (m 1/2): 5153.687012 Right Ascen at Week(rad): 1.945933651 Argument of Perigee(rad): 1.148013845 Mean Anom(rad): 2.446069811 Af0(s): 0.0003564879517 Af1(s/s): -3.637979e-12 week: 352 ******** Week 352 almanac for PRN-26 ******** ID: 26 Health: 0 Eccentricity: 0.0109500885 Time of Applicability(s): 319488 Orbital Inclination(rad): 0.9279529155 Rate of Right Ascen(r/s): -8.274630386e-09 SQRT(A) (m 1/2): 5153.625488 Right Ascen at Week(rad): 1.872396575 Argument of Perigee(rad): 0.6980159368 Mean Anom(rad): 1.612696548 Af0(s): -0.0002434368042 Af1(s/s): -7.275958e-12 week: 352 ******** Week 352 almanac for PRN-27 ******** ID: 27 Health: 0 Eccentricity: 0.01411819458 Time of Applicability(s): 319488 Orbital Inclination(rad): 0.9537010227 Rate of Right Ascen(r/s): -8.057478483e-09 SQRT(A) (m 1/2): 5153.607422 Right Ascen at Week(rad): 3.00150156 Argument of Perigee(rad): 0.8642652243 Mean Anom(rad): -0.1326889637 Af0(s): -1.130511475e-05 Af1(s/s): -7.275958e-12 week: 352 ******** Week 352 almanac for PRN-28 ******** ID: 28 Health: 0 Eccentricity: 0.0004138946533 Time of Applicability(s): 319488 Orbital Inclination(rad): 0.9617244613 Rate of Right Ascen(r/s): -7.714607058e-09 SQRT(A) (m 1/2): 5153.713379 Right Ascen at Week(rad): 0.8948995248 Argument of Perigee(rad): 0.4151563958 Mean Anom(rad): -3.114856224 Af0(s): -0.0004853662598 Af1(s/s): 3.637979e-12 week: 352 ******** Week 352 almanac for PRN-29 ******** ID: 29 Health: 0 Eccentricity: 0.00324344635 Time of Applicability(s): 319488 Orbital Inclination(rad): 0.9629947891 Rate of Right Ascen(r/s): -7.943188008e-09 SQRT(A) (m 1/2): 5153.735352 Right Ascen at Week(rad): 3.090325639 Argument of Perigee(rad): 2.755978497 Mean Anom(rad): -0.2548685112 Af0(s): -0.0003135285156 Af1(s/s): 7.275958e-12 week: 352 ******** Week 352 almanac for PRN-30 ******** ID: 30 Health: 0 Eccentricity: 0.007841587067 Time of Applicability(s): 319488 Orbital Inclination(rad): 0.9359943304 Rate of Right Ascen(r/s): -7.954617056e-09 SQRT(A) (m 1/2): 5153.73584 Right Ascen at Week(rad): 0.9130410197 Argument of Perigee(rad): -2.351406044 Mean Anom(rad): 3.111270693 Af0(s): 6.330864258e-05 Af1(s/s): 1.091394e-11 week: 352 ******** Week 352 almanac for PRN-31 ******** ID: 31 Health: 0 Eccentricity: 0.01088809967 Time of Applicability(s): 319488 Orbital Inclination(rad): 0.9545039658 Rate of Right Ascen(r/s): -7.771752296e-09 SQRT(A) (m 1/2): 5153.712402 Right Ascen at Week(rad): 0.9452441301 Argument of Perigee(rad): 0.9282988106 Mean Anom(rad): 2.150057584 Af0(s): -0.0001371687256 Af1(s/s): 3.637979e-12 week: 352 ******** Week 352 almanac for PRN-32 ******** ID: 32 Health: 0 Eccentricity: 0.009131908417 Time of Applicability(s): 319488 Orbital Inclination(rad): 0.9676446684 Rate of Right Ascen(r/s): -7.988904198e-09 SQRT(A) (m 1/2): 5153.659668 Right Ascen at Week(rad): -0.1344757367 Argument of Perigee(rad): -2.030838514 Mean Anom(rad): 0.4833552492 Af0(s): -0.0001371687256 Af1(s/s): 1.818989e-11 week: 352